Precipitable_Water
0.71 0.75 0.79 0.78 0.76 0.82 0.80 0.77 0.75 0.76 0.79 0.80 0.79 0.77 0.75 0.79 0.80 0.69 0.48 0.72 0.59 0.80 0.78 0.76 0.68 0.53 0.51 0.49 0.50 0.50 0.38 0.30 0.30 0.39 0.47 0.54 0.54 0.75 0.80 0.72 0.73 0.78 0.77 0.92 1.13
0.73 0.74 0.78 0.81 0.84 0.84 0.85 0.86 0.86 0.84 0.79 0.79 0.80 0.82 0.83 0.86 0.73 0.55 0.66 0.85 0.81 0.85 0.66 0.59 0.54 0.51 0.40 0.39 0.44 0.38 0.31 0.33 0.35 0.37 0.42 0.51 0.56 0.66 0.68 0.63 0.60 0.71 0.96 1.04 1.00
0.76 0.75 0.76 0.80 0.85 0.86 0.88 0.93 0.91 0.89 0.86 0.84 0.80 0.85 0.84 0.89 0.61 0.54 0.71 0.88 0.92 0.93 0.79 0.69 0.63 0.54 0.38 0.36 0.40 0.37 0.26 0.33 0.35 0.39 0.43 0.48 0.53 0.62 0.59 0.54 0.59 0.64 0.82 0.91 0.85
0.78 0.79 0.80 0.80 0.82 0.84 0.86 0.90 0.93 0.91 0.91 0.89 0.87 0.87 0.91 0.80 0.34 0.76 0.81 0.92 0.94 0.96 0.85 0.68 0.61 0.48 0.39 0.30 0.37 0.28 0.32 0.31 0.37 0.41 0.42 0.46 0.55 0.59 0.60 0.60 0.68 0.70 0.84 0.80 0.75
0.81 0.81 0.81 0.81 0.79 0.81 0.86 0.86 0.90 0.89 0.91 0.94 0.90 0.94 0.88 0.65 0.64 0.92 1.04 0.97 1.00 0.86 0.75 0.69 0.52 0.48 0.35 0.31 0.35 0.31 0.30 0.33 0.39 0.39 0.40 0.46 0.49 0.54 0.56 0.63 0.69 0.72 0.79 0.71 0.71
0.82 0.81 0.79 0.77 0.78 0.81 0.85 0.88 0.89 0.89 0.87 0.93 0.92 0.95 0.74 0.51 0.89 0.99 0.95 0.99 0.89 0.86 0.81 0.79 0.60 0.59 0.45 0.36 0.34 0.35 0.34 0.33 0.37 0.36 0.37 0.38 0.41 0.51 0.52 0.60 0.63 0.67 0.69 0.68 0.66
0.81 0.80 0.75 0.76 0.78 0.81 0.84 0.89 0.88 0.87 0.89 0.92 0.95 0.89 0.71 0.61 0.88 0.96 0.97 0.97 0.96 0.87 0.80 0.88 0.80 0.62 0.52 0.38 0.43 0.38 0.31 0.33 0.33 0.34 0.31 0.39 0.34 0.38 0.48 0.55 0.58 0.61 0.65 0.66 0.65
0.80 0.77 0.75 0.76 0.77 0.80 0.81 0.84 0.89 0.87 0.88 0.91 0.92 0.80 0.60 0.83 0.92 0.88 0.90 0.90 1.02 0.93 0.87 0.91 0.84 0.65 0.54 0.53 0.41 0.32 0.33 0.23 0.30 0.33 0.34 0.34 0.23 0.37 0.45 0.50 0.52 0.56 0.59 0.60 0.60
0.78 0.77 0.74 0.75 0.76 0.78 0.77 0.78 0.88 0.88 0.91 0.96 0.80 0.77 0.57 0.84 0.71 0.81 0.83 0.76 0.85 0.85 0.85 0.83 0.78 0.62 0.56 0.41 0.33 0.32 0.23 0.21 0.24 0.32 0.31 0.31 0.26 0.38 0.43 0.46 0.49 0.52 0.53 0.53 0.53
0.76 0.77 0.74 0.74 0.74 0.74 0.75 0.78 0.85 0.93 0.90 0.96 0.85 0.63 0.70 0.64 0.72 0.75 0.80 0.82 0.72 0.71 0.64 0.61 0.59 0.57 0.49 0.36 0.24 0.24 0.22 0.20 0.21 0.27 0.30 0.28 0.30 0.39 0.41 0.42 0.45 0.48 0.49 0.48 0.48
0.75 0.75 0.74 0.74 0.74 0.73 0.70 0.76 0.65 0.62 0.68 0.61 0.61 0.61 0.66 0.78 0.85 0.68 0.75 0.69 0.68 0.60 0.42 0.52 0.40 0.41 0.44 0.36 0.33 0.28 0.23 0.20 0.27 0.29 0.26 0.26 0.28 0.34 0.38 0.39 0.40 0.42 0.43 0.43 0.44
0.73 0.72 0.72 0.72 0.73 0.72 0.73 0.56 0.57 0.65 0.50 0.70 0.67 0.67 0.74 0.78 0.60 0.65 0.72 0.55 0.53 0.42 0.49 0.44 0.38 0.45 0.47 0.37 0.32 0.27 0.24 0.25 0.30 0.31 0.28 0.26 0.28 0.26 0.30 0.34 0.37 0.37 0.36 0.36 0.38
0.71 0.69 0.68 0.68 0.70 0.70 0.63 0.60 0.74 0.76 0.51 0.57 0.67 0.64 0.66 0.73 0.60 0.61 0.68 0.62 0.55 0.49 0.49 0.41 0.44 0.51 0.40 0.34 0.32 0.31 0.28 0.29 0.25 0.28 0.27 0.27 0.22 0.24 0.26 0.28 0.32 0.35 0.35 0.34 0.34
0.67 0.68 0.67 0.65 0.61 0.65 0.60 0.71 0.79 0.76 0.40 0.40 0.52 0.58 0.65 0.66 0.52 0.70 0.73 0.66 0.58 0.49 0.51 0.49 0.49 0.43 0.35 0.32 0.36 0.28 0.36 0.33 0.28 0.23 0.17 0.25 0.13 0.19 0.21 0.22 0.25 0.27 0.30 0.31 0.31
0.60 0.64 0.64 0.66 0.56 0.53 0.59 0.75 0.78 0.62 0.21 0.39 0.48 0.64 0.61 0.55 0.56 0.61 0.77 0.66 0.47 0.50 0.51 0.40 0.39 0.36 0.34 0.34 0.39 0.33 0.37 0.31 0.27 0.23 0.20 0.19 0.16 0.21 0.26 0.19 0.20 0.24 0.28 0.30 0.33
0.60 0.60 0.60 0.67 0.65 0.66 0.71 0.71 0.57 0.33 0.20 0.36 0.46 0.51 0.52 0.55 0.55 0.60 0.57 0.64 0.54 0.48 0.46 0.42 0.48 0.43 0.38 0.38 0.38 0.38 0.33 0.29 0.29 0.24 0.16 0.20 0.17 0.15 0.18 0.19 0.20 0.23 0.27 0.32 0.34
0.62 0.61 0.59 0.64 0.51 0.67 0.66 0.52 0.33 0.21 0.33 0.33 0.38 0.45 0.46 0.39 0.42 0.47 0.41 0.38 0.36 0.31 0.30 0.35 0.35 0.40 0.41 0.30 0.36 0.33 0.26 0.18 0.16 0.15 0.14 0.21 0.16 0.16 0.20 0.21 0.22 0.23 0.26 0.32 0.35
0.61 0.60 0.61 0.62 0.62 0.60 0.55 0.35 0.19 0.28 0.30 0.37 0.37 0.37 0.34 0.38 0.36 0.37 0.37 0.34 0.36 0.34 0.28 0.24 0.22 0.33 0.36 0.33 0.29 0.28 0.27 0.18 0.10 0.11 0.13 0.19 0.12 0.14 0.21 0.22 0.23 0.26 0.29 0.31 0.33
0.61 0.57 0.55 0.60 0.62 0.58 0.42 0.21 0.24 0.28 0.32 0.32 0.33 0.29 0.28 0.32 0.32 0.31 0.28 0.29 0.31 0.35 0.27 0.23 0.23 0.35 0.34 0.34 0.31 0.26 0.22 0.25 0.18 0.19 0.14 0.13 0.16 0.20 0.21 0.19 0.21 0.23 0.27 0.29 0.32
0.55 0.52 0.47 0.56 0.62 0.54 0.30 0.22 0.28 0.33 0.34 0.34 0.26 0.28 0.24 0.26 0.27 0.26 0.26 0.31 0.31 0.32 0.35 0.27 0.20 0.32 0.32 0.33 0.31 0.28 0.25 0.15 0.18 0.10 0.10 0.15 0.13 0.15 0.17 0.16 0.20 0.23 0.25 0.29 0.32
0.51 0.43 0.47 0.55 0.60 0.42 0.26 0.25 0.29 0.35 0.35 0.31 0.29 0.27 0.27 0.26 0.27 0.24 0.26 0.30 0.32 0.30 0.33 0.28 0.23 0.24 0.28 0.24 0.21 0.21 0.18 0.18 0.17 0.17 0.12 0.11 0.14 0.17 0.16 0.19 0.20 0.24 0.28 0.30 0.32
0.45 0.32 0.51 0.52 0.34 0.32 0.28 0.33 0.35 0.32 0.37 0.34 0.34 0.31 0.27 0.27 0.25 0.25 0.25 0.28 0.34 0.33 0.25 0.28 0.23 0.18 0.20 0.26 0.28 0.25 0.20 0.18 0.14 0.11 0.12 0.12 0.13 0.21 0.21 0.21 0.21 0.23 0.25 0.28 0.33
0.31 0.31 0.50 0.53 0.29 0.25 0.29 0.30 0.32 0.33 0.33 0.32 0.31 0.32 0.32 0.26 0.24 0.27 0.27 0.33 0.34 0.30 0.25 0.25 0.20 0.14 0.16 0.20 0.23 0.18 0.19 0.18 0.16 0.16 0.12 0.10 0.13 0.19 0.20 0.20 0.22 0.21 0.22 0.25 0.28
0.35 0.27 0.34 0.36 0.37 0.29 0.26 0.23 0.26 0.33 0.32 0.33 0.32 0.33 0.30 0.25 0.28 0.25 0.27 0.30 0.32 0.29 0.28 0.28 0.21 0.17 0.13 0.17 0.19 0.15 0.17 0.17 0.17 0.13 0.14 0.13 0.14 0.16 0.19 0.19 0.20 0.20 0.21 0.22 0.26
0.38 0.27 0.29 0.24 0.25 0.28 0.28 0.23 0.21 0.22 0.28 0.31 0.28 0.27 0.25 0.22 0.23 0.24 0.26 0.27 0.29 0.28 0.26 0.25 0.17 0.18 0.18 0.18 0.18 0.18 0.17 0.17 0.15 0.16 0.11 0.14 0.14 0.16 0.17 0.17 0.21 0.25 0.27 0.29 0.30
0.45 0.32 0.33 0.27 0.28 0.27 0.27 0.27 0.24 0.25 0.25 0.23 0.24 0.26 0.26 0.22 0.24 0.21 0.24 0.23 0.21 0.24 0.23 0.24 0.17 0.18 0.15 0.16 0.16 0.14 0.15 0.17 0.16 0.15 0.14 0.12 0.10 0.18 0.24 0.29 0.30 0.32 0.34 0.34 0.36
0.57 0.51 0.37 0.29 0.26 0.25 0.24 0.24 0.26 0.30 0.31 0.32 0.30 0.29 0.24 0.23 0.26 0.26 0.26 0.24 0.21 0.18 0.16 0.15 0.14 0.12 0.12 0.15 0.16 0.13 0.16 0.15 0.15 0.17 0.16 0.14 0.23 0.29 0.30 0.32 0.33 0.34 0.35 0.36 0.37
Wind_Speed
23 24 25 24 23 22 22 21 21 20 21 21 23 24 26 30 34 39 42 40 44 38 39 39 38 39 38 37 38 35 33 36 35 31 25 23 22 20 17 16 14 13 12 10 12
23 24 24 24 23 23 22 21 20 20 20 21 22 22 24 26 30 37 39 41 40 38 37 40 39 39 39 39 37 37 35 34 33 31 26 25 24 21 20 18 15 13 9 10 11
23 24 24 24 23 23 21 20 19 18 18 19 19 19 20 20 24 31 36 38 38 38 37 38 38 39 40 39 41 38 35 33 30 29 26 27 25 23 22 20 19 18 15 14 13
24 24 24 23 24 23 21 20 19 18 18 17 17 16 15 16 16 18 31 35 35 38 37 36 38 39 39 41 42 36 39 35 27 27 27 26 23 23 23 19 18 18 17 15 15
24 24 24 24 23 23 21 18 17 17 18 16 15 11 10 13 13 11 20 29 32 33 37 36 38 38 39 41 40 42 35 35 29 28 28 26 25 22 22 19 17 17 17 16 16
23 23 22 22 22 22 19 15 13 15 14 14 13 11 10 11 12 11 15 24 29 30 31 33 33 36 36 38 41 39 37 34 31 31 28 26 24 24 22 21 19 18 18 17 16
22 21 21 22 23 22 18 13 12 13 13 10 9 9 7 8 10 10 11 19 25 29 27 28 27 32 33 37 40 35 36 33 34 31 27 26 25 25 23 22 21 20 19 18 17
20 20 20 21 23 22 17 13 11 10 11 11 7 8 7 7 5 10 10 15 19 23 27 24 25 29 31 33 35 39 36 33 35 32 27 27 26 26 24 23 22 21 19 18 18
19 19 19 20 22 21 17 13 9 11 13 10 9 8 7 8 6 7 9 14 18 19 20 24 24 25 29 32 34 37 36 36 32 33 28 28 23 25 25 24 22 21 20 19 18
18 18 19 20 21 20 17 12 9 12 13 9 9 3 6 8 7 8 10 11 15 18 18 20 23 23 28 33 35 38 37 37 31 33 30 28 21 23 24 24 22 21 20 20 20
17 17 18 19 19 17 16 13 10 10 16 11 11 8 4 8 8 9 10 11 13 16 19 21 22 25 28 34 34 36 35 34 29 31 28 29 25 23 23 23 23 22 21 21 20
17 17 18 19 18 16 14 13 9 9 10 14 11 11 10 4 6 9 11 10 12 16 18 20 24 25 26 31 33 33 33 29 25 27 26 28 26 24 23 23 24 23 22 21 20
17 17 18 19 18 15 14 12 7 6 7 11 11 8 7 8 8 6 11 9 9 13 19 21 18 23 24 28 28 31 27 29 28 26 24 23 23 23 23 23 23 23 22 21 21
18 17 18 19 16 15 13 11 6 5 4 7 9 8 8 5 5 9 10 9 8 13 19 11 16 19 23 24 21 24 23 28 27 25 23 23 19 24 24 24 23 23 22 21 19
18 17 17 17 15 14 13 11 8 6 7 10 8 7 10 11 13 8 12 11 7 16 12 10 15 18 22 21 20 20 22 26 24 22 19 21 16 16 20 22 24 23 22 22 21
17 17 17 15 13 13 13 10 9 9 9 9 9 10 11 14 11 11 8 8 6 9 9 9 11 15 19 20 20 21 22 22 21 19 16 17 16 16 17 18 18 21 21 20 19
17 16 15 14 13 12 12 10 10 11 7 10 9 8 8 8 8 8 7 6 5 6 7 11 12 15 17 18 17 19 22 18 15 15 18 15 14 16 12 10 12 14 17 17 18
16 14 13 14 14 12 11 10 13 9 11 9 8 6 7 7 8 7 5 6 6 6 11 12 12 12 15 17 18 20 17 17 18 18 17 12 15 13 12 12 13 13 14 15 16
14 14 13 13 13 12 11 13 10 11 10 10 8 7 8 9 8 6 7 6 7 9 8 12 11 14 15 16 18 16 15 13 14 12 11 13 13 9 10 9 10 12 13 14 16
12 12 13 13 12 12 12 11 10 10 10 9 10 9 9 8 6 7 9 9 9 8 9 9 13 13 15 15 15 16 13 11 10 11 10 10 10 10 8 9 9 11 12 13 14
10 10 12 12 11 11 11 10 10 10 10 9 10 9 9 8 7 9 11 10 8 7 8 8 13 14 14 13 13 14 12 10 10 9 8 8 9 7 7 7 10 12 13 15 16
9 9 10 9 10 10 10 9 8 10 9 9 8 9 10 9 9 10 10 10 9 8 8 10 13 14 13 12 11 12 10 9 8 8 6 7 8 6 7 7 8 11 14 17 19
7 8 9 8 9 10 9 8 9 8 8 8 9 9 9 9 8 9 10 9 9 9 9 8 12 13 9 9 10 10 11 8 7 5 7 6 7 7 8 10 12 15 18 20 23
5 6 6 8 8 8 8 9 8 7 7 6 6 6 6 9 9 9 8 8 8 9 8 9 11 10 10 9 8 9 9 8 6 6 7 7 8 10 12 14 17 19 21 22 24
4 4 4 6 7 8 7 7 8 8 7 6 6 8 6 6 7 7 6 7 7 6 7 8 9 8 8 7 6 5 7 8 8 8 7 8 10 15 14 16 16 17 18 19 21
4 3 2 3 3 4 6 7 8 7 8 8 8 8 8 7 6 6 5 6 6 4 6 4 6 5 5 4 4 4 6 7 8 9 11 12 12 9 10 12 14 17 19 20 22
5 4 3 2 2 2 4 5 6 6 7 7 7 6 9 7 7 6 6 5 5 4 4 4 4 3 2 2 2 3 6 7 6 7 7 7 7 9 12 14 17 20 21 23 25
Wind_Direction
326 323 321 320 316 313 309 304 299 294 290 287 280 275 268 257 249 243 239 237 232 233 229 228 226 224 222 222 221 221 226 225 224 226 228 222 223 228 233 226 236 245 255 236 211
330 327 324 322 320 315 309 304 298 295 293 289 284 278 271 261 253 245 238 232 230 229 227 224 223 221 220 219 219 219 224 226 224 228 229 225 220 222 227 224 235 237 233 216 218
332 329 326 325 322 319 312 306 301 296 300 298 288 284 272 260 258 250 235 229 227 223 224 223 221 219 219 217 217 219 223 224 223 224 228 221 220 222 227 229 231 226 224 226 226
335 333 330 327 325 322 318 309 300 297 296 298 294 289 270 249 259 260 228 223 223 220 222 222 219 217 218 217 216 221 220 222 225 222 223 218 219 219 227 230 237 221 222 226 227
338 336 335 334 332 328 321 313 306 305 297 292 292 285 267 251 261 259 221 220 218 217 217 219 218 217 217 216 215 217 220 219 221 221 221 217 219 221 222 225 225 218 221 226 227
341 341 342 343 342 339 334 325 320 319 312 294 281 273 268 250 251 253 229 215 213 211 212 214 216 217 217 217 214 214 219 215 218 217 218 216 220 219 223 223 222 223 224 227 226
345 346 348 350 349 346 343 339 332 332 335 321 277 267 276 259 251 234 222 210 209 209 207 208 214 213 212 213 213 214 213 212 215 212 215 217 220 225 219 220 222 224 225 227 227
348 349 351 353 353 355 352 347 345 348 342 339 301 267 254 257 244 223 217 207 201 203 207 206 212 213 213 211 211 208 208 210 210 209 212 215 220 219 218 219 220 223 226 227 230
350 351 352 354 355 356 358 360 1 1 352 345 340 271 245 243 235 218 207 197 198 197 201 205 206 211 210 207 204 206 207 207 207 209 210 212 218 215 216 219 219 222 226 229 231
351 352 353 354 356 3 5 5 4 1 0 358 4 5 252 230 222 207 195 186 198 196 199 202 203 211 208 203 204 203 207 206 206 208 209 211 214 212 216 220 220 223 226 230 233
351 352 353 354 355 358 5 9 8 11 14 28 17 24 347 229 219 199 194 195 192 199 200 202 203 205 207 204 205 203 209 204 203 205 207 210 212 214 217 221 225 225 228 232 236
351 350 351 351 351 352 353 1 6 12 30 34 35 44 51 88 171 189 193 198 198 204 195 198 201 205 204 200 203 206 206 201 201 203 208 209 219 216 218 224 227 229 231 234 238
353 349 349 349 347 349 352 353 0 7 17 30 22 31 49 75 95 144 176 190 188 192 186 177 191 199 192 193 202 207 207 201 199 200 209 203 222 218 222 226 229 233 236 239 240
357 354 353 352 358 357 1 2 1 9 22 17 19 43 65 81 83 140 156 140 136 164 166 177 181 182 182 185 188 202 197 189 190 194 204 208 222 221 221 226 230 234 237 241 244
360 0 1 3 3 12 19 22 33 34 44 18 41 71 70 73 115 106 135 137 115 146 167 164 178 178 176 179 184 188 188 184 187 194 195 210 216 227 214 228 233 235 237 241 247
2 5 7 15 18 23 22 33 41 44 46 40 61 75 74 92 100 114 131 155 133 150 156 166 169 170 173 178 181 188 181 176 184 192 202 212 211 226 222 233 236 235 237 240 247
4 8 15 19 23 21 30 43 42 52 49 52 57 76 77 94 107 122 123 134 146 149 153 148 158 165 172 169 174 176 175 179 187 197 204 213 214 223 226 238 245 243 233 241 249
9 15 22 24 27 34 45 46 53 51 54 57 65 66 77 79 95 118 125 117 106 138 148 152 162 163 170 165 170 178 182 184 187 194 202 208 219 229 229 240 246 251 237 246 252
16 27 28 30 34 44 46 50 61 52 58 51 49 69 77 85 85 94 85 100 108 119 132 144 148 159 158 161 163 173 181 185 177 193 190 209 223 227 231 236 245 243 244 249 257
20 27 33 34 45 47 50 57 57 55 48 56 58 65 71 63 67 72 91 102 109 115 134 139 143 154 159 166 166 172 177 174 185 181 191 217 214 224 232 233 240 248 252 256 262
22 26 32 41 44 42 51 58 59 60 60 58 55 56 68 60 68 87 94 100 91 109 134 136 145 154 159 159 158 169 176 179 175 179 188 193 227 222 224 249 250 256 261 266 269
20 26 29 38 37 43 48 49 58 59 68 65 60 58 58 61 74 90 95 93 92 111 120 123 138 146 145 149 157 172 178 179 176 196 200 196 233 242 248 258 266 277 278 278 279
11 24 31 40 40 47 50 55 52 54 58 54 60 62 61 71 86 82 90 94 91 100 118 120 134 137 141 147 158 174 176 190 193 198 209 206 236 234 248 268 277 283 287 287 286
0 16 27 40 40 43 52 53 61 57 61 58 58 68 66 77 76 89 93 96 97 104 117 128 125 129 143 143 152 167 177 195 203 203 224 238 243 247 286 291 296 296 295 296 292
347 8 22 23 35 45 48 49 57 58 59 60 70 57 61 72 84 87 90 106 102 101 116 123 129 129 127 129 141 160 180 198 217 238 242 260 279 286 292 298 301 302 304 304 304
310 321 339 23 24 24 52 50 51 65 51 61 69 59 59 77 68 71 64 77 92 97 107 112 136 136 153 161 173 197 217 215 231 253 267 275 281 287 296 304 310 312 311 310 309
289 277 281 294 340 358 37 51 58 52 66 65 57 57 69 71 67 72 77 84 89 83 85 98 125 115 150 163 244 245 221 216 228 238 248 260 283 294 303 310 310 312 312 311 311